Regional Weather Roundup
Issued by NWS

Home | Current Version | Previous Version | Text Only | Print | Product List | Glossary Off
Versions: 1 2 3 4 5 6 7 8 9 10 11 12 13 14 15 16 17 18 19 20 21 22 23 24 25 26 27 28 29 30 31 32 33 34 35 36 37 38 39 40 41 42 43 44 45 46 47 48 49 50

502
ASUS43 KIND 101209
RWRIN

WEATHER ROUNDUP FOR INDIANA
NATIONAL WEATHER SERVICE INDIANAPOLIS IN
700 AM EST WED FEB 10 2016

NOTE: "FAIR" INDICATES FEW OR NO CLOUDS BELOW 12,000 FEET WITH NO
SIGNIFICANT WEATHER AND/OR OBSTRUCTIONS TO VISIBILITY.

* - STATION DOES NOT REPORT WEATHER SUCH AS PRECIPITATION OR FOG.

+ - STATION NOT QUALITY CONTROLLED BY THE NATIONAL WEATHER SERVICE.
    USE DATA WITH CAUTION...ESPECIALLY DEWPOINT AND RELATIVE
    HUMIDITY OBSERVATIONS.

INZ001>003-010>013-019-020-101300-
NORTHWEST INDIANA

CITY           SKY/WX    TMP DP  RH WIND       PRES   REMARKS
GARY /AIRPORT/ MOCLDY    14   1  57 W20       29.99R WCI  -3
KNOX *+        MOCLDY    12   7  79 W13       29.93S WCI  -3
LA PORTE +     LGT SNOW  18  14  87 W7        29.92R WCI   8
6HR MIN TEMP:  18; 6HR MAX TEMP:  19;

MICHIGAN CITY+ FLURRIES  19  12  73 NW9G22    29.94R WCI   9
MONTICELLO +   MOCLDY    12   2  64 W10       29.97R WCI  -1
6HR MIN TEMP:  12; 6HR MAX TEMP:  15;

RENSSELAER +   CLEAR     12   3  67 W12       29.99R WCI  -2
VALPARAISO     CLOUDY    13   5  70 NW15G22   29.94R WCI  -3
6HR MIN TEMP:  13; 6HR MAX TEMP:  16; 6HR PCP: TRACE;


$$

LMZ046-743>745-101300-
SOUTHERN LAKE MICHIGAN

STATION/POSITION TIME  TEMP    WIND        PRES    WAVE
                       AIR SEA DIR/SP/G            HT
                 (UTC) (F)     (DEG/KT/KT) (MB)    (FT)
BURNS HARBOR     1101   17     300/ 22     1014.2R
MICHIGAN CITY    1100   19     290/ 23/ 26   N/A

$$

INZ004-005-014>016-021>024-101300-
NORTH CENTRAL INDIANA

CITY           SKY/WX    TMP DP  RH WIND       PRES   REMARKS
ELKHART        LGT SNOW  19  16  86 NW9       29.88  WCI   9
GOSHEN         LGT SNOW  19  14  81 W10       29.86R WCI   7
6HR MIN TEMP:  18; 6HR MAX TEMP:  20; 6HR PCP: TRACE;

LOGANSPORT +   LGT SNOW  14   5  67 W13       29.96R WCI   0
PERU/GRISSOM   LGT SNOW  14   9  79 W12       29.92R WCI   0
6HR MIN TEMP:  13; 6HR MAX TEMP:  16; 6HR PCP: TRACE;

ROCHESTER +    LGT SNOW  18   9  68 W14G20    29.92R WCI   4
SOUTH BEND     LGT SNOW  17  14  88 NW12      29.89R FOG     WCI   4
6HR MIN TEMP:  17; 6HR MAX TEMP:  19; 6HR PCP:  0.10;

WARSAW +       LGT SNOW  18  14  86 W14       29.88R WCI   4

$$

INZ006>009-017-018-025>027-101300-
NORTHEAST INDIANA

CITY           SKY/WX    TMP DP  RH WIND       PRES   REMARKS
ANGOLA *+        N/A     18  16  93 NW7       29.82R WCI   8
AUBURN +       LGT SNOW  19  14  79 SW8       29.85S WCI   9
FORT WAYNE     LGT SNOW  17  10  74 W18       29.88R WCI   1
6HR MIN TEMP:  16; 6HR MAX TEMP:  19; 6HR PCP:  0.01;

HUNTINGTON +   LGT SNOW  14   8  75 W13G22    29.90R WCI   0
6HR MIN TEMP:  14; 6HR MAX TEMP:  15;


$$

INZ028-029-035-036-043>045-051>053-101300-
WEST CENTRAL INDIANA

CITY           SKY/WX    TMP DP  RH WIND       PRES   REMARKS
GREENCASTLE +  CLOUDY    12   1  62 W9G16     30.01S HAZE    WCI   0
LAFAYETTE      CLOUDY    11   4  73 W12       30.00R WCI  -3
6HR MIN TEMP:  11; 6HR MAX TEMP:  14; 6HR PCP: TRACE;

TERRE HAUTE    CLEAR     11   3  70 W8        30.07R WCI  -1
6HR MIN TEMP:  10; 6HR MAX TEMP:  15; 6HR PCP: TRACE;


$$

INZ030>032-037>040-046>048-054>057-064-065-101300-
CENTRAL INDIANA

CITY           SKY/WX    TMP DP  RH WIND       PRES   REMARKS
FISHERS *+     CLOUDY    10   9  92 W9        29.98R WCI  -2
FRANKFORT +    CLOUDY    13   3  65 W14       29.98S HAZE    WCI  -2
6HR MIN TEMP:  13; 6HR MAX TEMP:  16;

GREENWOOD *+   CLOUDY    14   9  79 W8G21     29.99R WCI   3
INDIANAPOLIS   FLURRIES  12   5  73 W15       29.98R WCI  -4
6HR MIN TEMP:  12; 6HR MAX TEMP:  15; 6HR PCP: TRACE;

-EAGLE CREEK   FLURRIES  12   6  77 W10       29.98S WCI  -1
6HR MIN TEMP:  12; 6HR MAX TEMP:  16; 6HR PCP: TRACE;

KOKOMO *+      CLOUDY    14   9  79 W18       29.94R WCI  -3
6HR MIN TEMP:  12; 6HR MAX TEMP:  16;

MARION +       CLOUDY    13   4  68 W15       29.94R WCI  -3
MT COMFORT *+  CLOUDY    12   7  79 W14       29.97S WCI  -3
SHELBYVILLE    FLURRIES  15   7  70 W15G22    29.98R WCI   0
6HR MIN TEMP:  15; 6HR MAX TEMP:  17; 6HR PCP: TRACE;

ZIONSVILLE +   FLURRIES  11   6  79 W13G18    29.97R WCI  -4
6HR MIN TEMP:  11; 6HR MAX TEMP:  15;


$$

INZ033-034-041-042-049-050-058-059-101300-
EAST CENTRAL INDIANA

CITY           SKY/WX    TMP DP  RH WIND       PRES   REMARKS
MUNCIE         CLOUDY    14   7  73 W14G22    29.93R WCI  -1
6HR MIN TEMP:  14; 6HR MAX TEMP:  16; 6HR PCP: TRACE;


$$

INZ060-061-067>069-081>083-085>088-101300-
SOUTHWEST INDIANA

CITY           SKY/WX    TMP DP  RH WIND       PRES   REMARKS
EVANSVILLE     MOCLDY    16   4  59 W14G25    30.14S WCI   2
6HR MIN TEMP:  16; 6HR MAX TEMP:  20; 6HR PCP: TRACE;

HUNTINGBURG *+ CLOUDY    16   5  62 W20       30.10S WCI  -1
6HR MIN TEMP:  16; 6HR MAX TEMP:  19;

WASHINGTON +   CLOUDY    14   6  71 W10       30.09F WCI   1
6HR MIN TEMP:  14; 6HR MAX TEMP:  18;


$$

INZ062-063-066-070>080-084-089>092-101300-
SOUTH CENTRAL AND SOUTHEAST INDIANA

CITY           SKY/WX    TMP DP  RH WIND       PRES   REMARKS
BEDFORD +      LGT SNOW  14  10  85 W7        30.04R WCI   4
BLOOMINGTON    LGT SNOW  13   8  81 W12G17    30.02S WCI  -1
6HR MIN TEMP:  13; 6HR MAX TEMP:  15; 6HR PCP: TRACE;

MADISON *+     CLOUDY    16   9  73 W8        30.03R WCI   5
NORTH VERNON + LGT SNOW  16  10  79 CALM      30.01R
SEYMOUR +      LGT SNOW  18  10  73 W10       30.04R WCI   6

$$





USA.gov is the U.S. government's official web portal to all federal, state and local government web resources and services.